Weather in Jacksonville

United States     30°16′44″N   81°24′11″W
temp.,
°C
wind,
m/s
gust,
m/s
humid.,
%
clouds,
%
prec.,
mm/h
press.,
hPa
HPBL,
m
18 may, tue
tue1823:00+22ese38706 0.0 1023668
02:00+22ese496758 0.1 1022695
05:00+22ese4969100 0.0 1022749
08:00+23ese486392 0.0 10231228
11:00+27ese574569 0.0 10241826
14:00+28e5744100 0.0 10241944
17:00+26e6850100 0.0 10221709
20:00+23e486313 0.0 10231215
19 may, wed
wed1923:00+22e3873100 0.1 1024740
02:00+21e387599 0.1 1022629
05:00+22ese4869100 0.0 1022691
08:00+22ese4872100 0.1 1024856
11:00+26ese585357 0.4 10241527
14:00+27e6748100 0.4 10241799
17:00+25e685826 0.1 10241464
20:00+23e596513 0.4 10241206
20 may, thu
thu2023:00+22e596398 0.0 10251289
02:00+21e596228 0.0 10241197
05:00+21e586314 0.0 10241021
08:00+23e585842 0.1 10251503
11:00+25e684991 0.0 10261679
14:00+27e68435 0.0 10261772
17:00+26e68471 0.0 10251599
20:00+23e586216 0.0 10251290
21 may, fri
fri2123:00+22e48666 0.0 10261063
02:00+21e38695 0.0 1026804
05:00+21e3774100 0.0 1025494
08:00+23ene486789 0.0 10271098
11:00+27ene585315 0.0 10281590
14:00+27ne685425 0.1 10271555
17:00+26ne686064 0.1 10261324
20:00+23ene486892 0.1 1026876
22 may, sat
sat2223:00+22ene3872100 0.0 1026637
02:00+21e2576100 0.0 1025260
05:00+20e2672100 0.0 1024232
08:00+23ene256284 0.0 1025951
11:00+26ene464655 0.0 10261811
14:00+28ene554493 0.0 10241886
17:00+27ene455359 0.0 10231472
20:00+23e246289 0.0 1023467